Index of /20260430/WXO-DD/model_rdps/10km/18/075
Name Last modified Size Description
Parent Directory -
20260430T18Z_MSC_RDPS_AbsoluteVorticity_IsbL-0250_RLatLon0.09_PT075H.grib2 2026-04-30 21:02 618K
20260430T18Z_MSC_RDPS_AbsoluteVorticity_IsbL-0500_RLatLon0.09_PT075H.grib2 2026-04-30 21:02 704K
20260430T18Z_MSC_RDPS_AbsoluteVorticity_IsbL-0700_RLatLon0.09_PT075H.grib2 2026-04-30 21:02 621K
20260430T18Z_MSC_RDPS_AbsoluteVorticity_IsbL-0850_RLatLon0.09_PT075H.grib2 2026-04-30 21:02 781K
20260430T18Z_MSC_RDPS_AirTemp_AGL-120m_RLatLon0.09_PT075H.grib2 2026-04-30 21:02 393K
20260430T18Z_MSC_RDPS_AirTemp_AGL-2m_RLatLon0.09_PT075H.grib2 2026-04-30 21:02 628K
20260430T18Z_MSC_RDPS_AirTemp_AGL-40m_RLatLon0.09_PT075H.grib2 2026-04-30 21:02 401K
20260430T18Z_MSC_RDPS_AirTemp_AGL-80m_RLatLon0.09_PT075H.grib2 2026-04-30 21:02 397K
20260430T18Z_MSC_RDPS_AirTemp_IsbL-0001_RLatLon0.09_PT075H.grib2 2026-04-30 21:02 279K
20260430T18Z_MSC_RDPS_AirTemp_IsbL-0005_RLatLon0.09_PT075H.grib2 2026-04-30 21:02 291K
20260430T18Z_MSC_RDPS_AirTemp_IsbL-0010_RLatLon0.09_PT075H.grib2 2026-04-30 21:02 301K
20260430T18Z_MSC_RDPS_AirTemp_IsbL-0020_RLatLon0.09_PT075H.grib2 2026-04-30 21:02 414K
20260430T18Z_MSC_RDPS_AirTemp_IsbL-0030_RLatLon0.09_PT075H.grib2 2026-04-30 21:02 344K
20260430T18Z_MSC_RDPS_AirTemp_IsbL-0050_RLatLon0.09_PT075H.grib2 2026-04-30 21:02 318K
20260430T18Z_MSC_RDPS_AirTemp_IsbL-0100_RLatLon0.09_PT075H.grib2 2026-04-30 21:02 428K
20260430T18Z_MSC_RDPS_AirTemp_IsbL-0150_RLatLon0.09_PT075H.grib2 2026-04-30 21:02 420K
20260430T18Z_MSC_RDPS_AirTemp_IsbL-0175_RLatLon0.09_PT075H.grib2 2026-04-30 21:02 409K
20260430T18Z_MSC_RDPS_AirTemp_IsbL-0200_RLatLon0.09_PT075H.grib2 2026-04-30 21:02 419K
20260430T18Z_MSC_RDPS_AirTemp_IsbL-0225_RLatLon0.09_PT075H.grib2 2026-04-30 21:02 421K
20260430T18Z_MSC_RDPS_AirTemp_IsbL-0250_RLatLon0.09_PT075H.grib2 2026-04-30 21:02 428K
20260430T18Z_MSC_RDPS_AirTemp_IsbL-0275_RLatLon0.09_PT075H.grib2 2026-04-30 21:02 406K
20260430T18Z_MSC_RDPS_AirTemp_IsbL-0300_RLatLon0.09_PT075H.grib2 2026-04-30 21:02 411K
20260430T18Z_MSC_RDPS_AirTemp_IsbL-0350_RLatLon0.09_PT075H.grib2 2026-04-30 21:02 424K
20260430T18Z_MSC_RDPS_AirTemp_IsbL-0400_RLatLon0.09_PT075H.grib2 2026-04-30 21:02 393K
20260430T18Z_MSC_RDPS_AirTemp_IsbL-0450_RLatLon0.09_PT075H.grib2 2026-04-30 21:02 401K
20260430T18Z_MSC_RDPS_AirTemp_IsbL-0500_RLatLon0.09_PT075H.grib2 2026-04-30 21:02 446K
20260430T18Z_MSC_RDPS_AirTemp_IsbL-0550_RLatLon0.09_PT075H.grib2 2026-04-30 21:02 427K
20260430T18Z_MSC_RDPS_AirTemp_IsbL-0600_RLatLon0.09_PT075H.grib2 2026-04-30 21:02 444K
20260430T18Z_MSC_RDPS_AirTemp_IsbL-0650_RLatLon0.09_PT075H.grib2 2026-04-30 21:02 461K
20260430T18Z_MSC_RDPS_AirTemp_IsbL-0700_RLatLon0.09_PT075H.grib2 2026-04-30 21:02 487K
20260430T18Z_MSC_RDPS_AirTemp_IsbL-0750_RLatLon0.09_PT075H.grib2 2026-04-30 21:02 411K
20260430T18Z_MSC_RDPS_AirTemp_IsbL-0800_RLatLon0.09_PT075H.grib2 2026-04-30 21:02 453K
20260430T18Z_MSC_RDPS_AirTemp_IsbL-0850_RLatLon0.09_PT075H.grib2 2026-04-30 21:02 502K
20260430T18Z_MSC_RDPS_AirTemp_IsbL-0875_RLatLon0.09_PT075H.grib2 2026-04-30 21:02 523K
20260430T18Z_MSC_RDPS_AirTemp_IsbL-0900_RLatLon0.09_PT075H.grib2 2026-04-30 21:02 534K
20260430T18Z_MSC_RDPS_AirTemp_IsbL-0925_RLatLon0.09_PT075H.grib2 2026-04-30 21:02 527K
20260430T18Z_MSC_RDPS_AirTemp_IsbL-0950_RLatLon0.09_PT075H.grib2 2026-04-30 21:02 525K
20260430T18Z_MSC_RDPS_AirTemp_IsbL-0970_RLatLon0.09_PT075H.grib2 2026-04-30 21:02 521K
20260430T18Z_MSC_RDPS_AirTemp_IsbL-0985_RLatLon0.09_PT075H.grib2 2026-04-30 21:02 513K
20260430T18Z_MSC_RDPS_AirTemp_IsbL-1000_RLatLon0.09_PT075H.grib2 2026-04-30 21:02 497K
20260430T18Z_MSC_RDPS_AirTemp_IsbL-1015_RLatLon0.09_PT075H.grib2 2026-04-30 21:02 495K
20260430T18Z_MSC_RDPS_Albedo_Sfc_RLatLon0.09_PT075H.grib2 2026-04-30 21:02 161K
20260430T18Z_MSC_RDPS_CAPE_Sfc_RLatLon0.09_PT075H.grib2 2026-04-30 21:02 1.7M
20260430T18Z_MSC_RDPS_CIN_Sfc_RLatLon0.09_PT075H.grib2 2026-04-30 21:02 1.2M
20260430T18Z_MSC_RDPS_CloudWater_EAtm_RLatLon0.09_PT075H.grib2 2026-04-30 21:02 224K
20260430T18Z_MSC_RDPS_ConvectivePrecip-Accum_Sfc_RLatLon0.09_PT075H.grib2 2026-04-30 21:02 1.2M
20260430T18Z_MSC_RDPS_DewPointDepression_AGL-2m_RLatLon0.09_PT075H.grib2 2026-04-30 21:02 427K
20260430T18Z_MSC_RDPS_DewPointDepression_IsbL-0001_RLatLon0.09_PT075H.grib2 2026-04-30 21:02 193
20260430T18Z_MSC_RDPS_DewPointDepression_IsbL-0005_RLatLon0.09_PT075H.grib2 2026-04-30 21:02 193
20260430T18Z_MSC_RDPS_DewPointDepression_IsbL-0010_RLatLon0.09_PT075H.grib2 2026-04-30 21:02 193
20260430T18Z_MSC_RDPS_DewPointDepression_IsbL-0020_RLatLon0.09_PT075H.grib2 2026-04-30 21:02 193
20260430T18Z_MSC_RDPS_DewPointDepression_IsbL-0030_RLatLon0.09_PT075H.grib2 2026-04-30 21:02 193
20260430T18Z_MSC_RDPS_DewPointDepression_IsbL-0050_RLatLon0.09_PT075H.grib2 2026-04-30 21:02 75K
20260430T18Z_MSC_RDPS_DewPointDepression_IsbL-0100_RLatLon0.09_PT075H.grib2 2026-04-30 21:02 119K
20260430T18Z_MSC_RDPS_DewPointDepression_IsbL-0150_RLatLon0.09_PT075H.grib2 2026-04-30 21:02 144K
20260430T18Z_MSC_RDPS_DewPointDepression_IsbL-0175_RLatLon0.09_PT075H.grib2 2026-04-30 21:02 180K
20260430T18Z_MSC_RDPS_DewPointDepression_IsbL-0200_RLatLon0.09_PT075H.grib2 2026-04-30 21:02 220K
20260430T18Z_MSC_RDPS_DewPointDepression_IsbL-0225_RLatLon0.09_PT075H.grib2 2026-04-30 21:02 260K
20260430T18Z_MSC_RDPS_DewPointDepression_IsbL-0250_RLatLon0.09_PT075H.grib2 2026-04-30 21:02 301K
20260430T18Z_MSC_RDPS_DewPointDepression_IsbL-0275_RLatLon0.09_PT075H.grib2 2026-04-30 21:02 310K
20260430T18Z_MSC_RDPS_DewPointDepression_IsbL-0300_RLatLon0.09_PT075H.grib2 2026-04-30 21:02 329K
20260430T18Z_MSC_RDPS_DewPointDepression_IsbL-0350_RLatLon0.09_PT075H.grib2 2026-04-30 21:02 336K
20260430T18Z_MSC_RDPS_DewPointDepression_IsbL-0400_RLatLon0.09_PT075H.grib2 2026-04-30 21:02 345K
20260430T18Z_MSC_RDPS_DewPointDepression_IsbL-0450_RLatLon0.09_PT075H.grib2 2026-04-30 21:02 348K
20260430T18Z_MSC_RDPS_DewPointDepression_IsbL-0500_RLatLon0.09_PT075H.grib2 2026-04-30 21:02 354K
20260430T18Z_MSC_RDPS_DewPointDepression_IsbL-0550_RLatLon0.09_PT075H.grib2 2026-04-30 21:02 365K
20260430T18Z_MSC_RDPS_DewPointDepression_IsbL-0600_RLatLon0.09_PT075H.grib2 2026-04-30 21:02 373K
20260430T18Z_MSC_RDPS_DewPointDepression_IsbL-0650_RLatLon0.09_PT075H.grib2 2026-04-30 21:02 380K
20260430T18Z_MSC_RDPS_DewPointDepression_IsbL-0700_RLatLon0.09_PT075H.grib2 2026-04-30 21:02 392K
20260430T18Z_MSC_RDPS_DewPointDepression_IsbL-0750_RLatLon0.09_PT075H.grib2 2026-04-30 21:02 413K
20260430T18Z_MSC_RDPS_DewPointDepression_IsbL-0800_RLatLon0.09_PT075H.grib2 2026-04-30 21:02 448K
20260430T18Z_MSC_RDPS_DewPointDepression_IsbL-0850_RLatLon0.09_PT075H.grib2 2026-04-30 21:02 482K
20260430T18Z_MSC_RDPS_DewPointDepression_IsbL-0875_RLatLon0.09_PT075H.grib2 2026-04-30 21:02 481K
20260430T18Z_MSC_RDPS_DewPointDepression_IsbL-0900_RLatLon0.09_PT075H.grib2 2026-04-30 21:02 470K
20260430T18Z_MSC_RDPS_DewPointDepression_IsbL-0925_RLatLon0.09_PT075H.grib2 2026-04-30 21:02 456K
20260430T18Z_MSC_RDPS_DewPointDepression_IsbL-0950_RLatLon0.09_PT075H.grib2 2026-04-30 21:02 448K
20260430T18Z_MSC_RDPS_DewPointDepression_IsbL-0970_RLatLon0.09_PT075H.grib2 2026-04-30 21:02 441K
20260430T18Z_MSC_RDPS_DewPointDepression_IsbL-0985_RLatLon0.09_PT075H.grib2 2026-04-30 21:02 438K
20260430T18Z_MSC_RDPS_DewPointDepression_IsbL-1000_RLatLon0.09_PT075H.grib2 2026-04-30 21:02 433K
20260430T18Z_MSC_RDPS_DewPointDepression_IsbL-1015_RLatLon0.09_PT075H.grib2 2026-04-30 21:02 425K
20260430T18Z_MSC_RDPS_DewPoint_AGL-2m_RLatLon0.09_PT075H.grib2 2026-04-30 21:02 314K
20260430T18Z_MSC_RDPS_DownwardLongwaveRadiationFlux-Accum_Sfc_RLatLon0.09_PT075H.grib2 2026-04-30 21:02 430K
20260430T18Z_MSC_RDPS_DownwardShortwaveRadiationFlux-Accum_NTAtm_RLatLon0.09_PT075H.grib2 2026-04-30 21:02 112K
20260430T18Z_MSC_RDPS_DownwardShortwaveRadiationFlux-Accum_Sfc_RLatLon0.09_PT075H.grib2 2026-04-30 21:02 633K
20260430T18Z_MSC_RDPS_FreezingRain-Accum1h_Sfc_RLatLon0.09_PT075H.grib2 2026-04-30 21:02 13K
20260430T18Z_MSC_RDPS_FreezingRain-Accum3h_Sfc_RLatLon0.09_PT075H.grib2 2026-04-30 21:02 14K
20260430T18Z_MSC_RDPS_FreezingRain-Accum_Sfc_RLatLon0.09_PT075H.grib2 2026-04-30 21:02 218K
20260430T18Z_MSC_RDPS_GeopotentialHeight_IsbL-0001_RLatLon0.09_PT075H.grib2 2026-04-30 21:02 322K
20260430T18Z_MSC_RDPS_GeopotentialHeight_IsbL-0005_RLatLon0.09_PT075H.grib2 2026-04-30 21:02 341K
20260430T18Z_MSC_RDPS_GeopotentialHeight_IsbL-0010_RLatLon0.09_PT075H.grib2 2026-04-30 21:02 308K
20260430T18Z_MSC_RDPS_GeopotentialHeight_IsbL-0020_RLatLon0.09_PT075H.grib2 2026-04-30 21:02 308K
20260430T18Z_MSC_RDPS_GeopotentialHeight_IsbL-0030_RLatLon0.09_PT075H.grib2 2026-04-30 21:02 311K
20260430T18Z_MSC_RDPS_GeopotentialHeight_IsbL-0050_RLatLon0.09_PT075H.grib2 2026-04-30 21:02 313K
20260430T18Z_MSC_RDPS_GeopotentialHeight_IsbL-0100_RLatLon0.09_PT075H.grib2 2026-04-30 21:02 291K
20260430T18Z_MSC_RDPS_GeopotentialHeight_IsbL-0150_RLatLon0.09_PT075H.grib2 2026-04-30 21:02 233K
20260430T18Z_MSC_RDPS_GeopotentialHeight_IsbL-0175_RLatLon0.09_PT075H.grib2 2026-04-30 21:02 236K
20260430T18Z_MSC_RDPS_GeopotentialHeight_IsbL-0200_RLatLon0.09_PT075H.grib2 2026-04-30 21:02 268K
20260430T18Z_MSC_RDPS_GeopotentialHeight_IsbL-0225_RLatLon0.09_PT075H.grib2 2026-04-30 21:02 269K
20260430T18Z_MSC_RDPS_GeopotentialHeight_IsbL-0250_RLatLon0.09_PT075H.grib2 2026-04-30 21:02 269K
20260430T18Z_MSC_RDPS_GeopotentialHeight_IsbL-0275_RLatLon0.09_PT075H.grib2 2026-04-30 21:02 268K
20260430T18Z_MSC_RDPS_GeopotentialHeight_IsbL-0300_RLatLon0.09_PT075H.grib2 2026-04-30 21:02 237K
20260430T18Z_MSC_RDPS_GeopotentialHeight_IsbL-0350_RLatLon0.09_PT075H.grib2 2026-04-30 21:02 233K
20260430T18Z_MSC_RDPS_GeopotentialHeight_IsbL-0400_RLatLon0.09_PT075H.grib2 2026-04-30 21:02 229K
20260430T18Z_MSC_RDPS_GeopotentialHeight_IsbL-0450_RLatLon0.09_PT075H.grib2 2026-04-30 21:02 299K
20260430T18Z_MSC_RDPS_GeopotentialHeight_IsbL-0500_RLatLon0.09_PT075H.grib2 2026-04-30 21:02 293K
20260430T18Z_MSC_RDPS_GeopotentialHeight_IsbL-0550_RLatLon0.09_PT075H.grib2 2026-04-30 21:02 289K
20260430T18Z_MSC_RDPS_GeopotentialHeight_IsbL-0600_RLatLon0.09_PT075H.grib2 2026-04-30 21:02 284K
20260430T18Z_MSC_RDPS_GeopotentialHeight_IsbL-0650_RLatLon0.09_PT075H.grib2 2026-04-30 21:02 256K
20260430T18Z_MSC_RDPS_GeopotentialHeight_IsbL-0700_RLatLon0.09_PT075H.grib2 2026-04-30 21:02 256K
20260430T18Z_MSC_RDPS_GeopotentialHeight_IsbL-0750_RLatLon0.09_PT075H.grib2 2026-04-30 21:02 259K
20260430T18Z_MSC_RDPS_GeopotentialHeight_IsbL-0800_RLatLon0.09_PT075H.grib2 2026-04-30 21:02 349K
20260430T18Z_MSC_RDPS_GeopotentialHeight_IsbL-0850_RLatLon0.09_PT075H.grib2 2026-04-30 21:02 357K
20260430T18Z_MSC_RDPS_GeopotentialHeight_IsbL-0875_RLatLon0.09_PT075H.grib2 2026-04-30 21:02 361K
20260430T18Z_MSC_RDPS_GeopotentialHeight_IsbL-0900_RLatLon0.09_PT075H.grib2 2026-04-30 21:02 364K
20260430T18Z_MSC_RDPS_GeopotentialHeight_IsbL-0925_RLatLon0.09_PT075H.grib2 2026-04-30 21:02 368K
20260430T18Z_MSC_RDPS_GeopotentialHeight_IsbL-0950_RLatLon0.09_PT075H.grib2 2026-04-30 21:02 371K
20260430T18Z_MSC_RDPS_GeopotentialHeight_IsbL-0970_RLatLon0.09_PT075H.grib2 2026-04-30 21:02 377K
20260430T18Z_MSC_RDPS_GeopotentialHeight_IsbL-0985_RLatLon0.09_PT075H.grib2 2026-04-30 21:02 386K
20260430T18Z_MSC_RDPS_GeopotentialHeight_IsbL-1000_RLatLon0.09_PT075H.grib2 2026-04-30 21:02 398K
20260430T18Z_MSC_RDPS_GeopotentialHeight_IsbL-1015_RLatLon0.09_PT075H.grib2 2026-04-30 21:02 413K
20260430T18Z_MSC_RDPS_Humidex_Sfc_RLatLon0.09_PT075H.grib2 2026-04-30 21:02 2.4M
20260430T18Z_MSC_RDPS_IcePellets-Accum1h_Sfc_RLatLon0.09_PT075H.grib2 2026-04-30 21:02 1.7K
20260430T18Z_MSC_RDPS_IcePellets-Accum3h_Sfc_RLatLon0.09_PT075H.grib2 2026-04-30 21:02 2.2K
20260430T18Z_MSC_RDPS_IcePellets-Accum_Sfc_RLatLon0.09_PT075H.grib2 2026-04-30 21:02 34K
20260430T18Z_MSC_RDPS_KIndex_Sfc_RLatLon0.09_PT075H.grib2 2026-04-30 21:02 2.4M
20260430T18Z_MSC_RDPS_LatentHeatNetFlux_Sfc_RLatLon0.09_PT075H.grib2 2026-04-30 21:02 309K
20260430T18Z_MSC_RDPS_LiftedIndex-MU-VT_IsbL-0500_RLatLon0.09_PT075H.grib2 2026-04-30 21:02 2.4M
20260430T18Z_MSC_RDPS_NetLongwaveRadiationFlux-Accum_Sfc_RLatLon0.09_PT075H.grib2 2026-04-30 21:02 481K
20260430T18Z_MSC_RDPS_NetShortwaveRadiationFlux-Accum_Sfc_RLatLon0.09_PT075H.grib2 2026-04-30 21:02 636K
20260430T18Z_MSC_RDPS_PlanetaryBoundaryLayerHeight_Sfc_RLatLon0.09_PT075H.grib2 2026-04-30 21:02 1.0M
20260430T18Z_MSC_RDPS_Precip-Accum1h_Sfc_RLatLon0.09_PT075H.grib2 2026-04-30 21:02 1.2M
20260430T18Z_MSC_RDPS_Precip-Accum3h_Sfc_RLatLon0.09_PT075H.grib2 2026-04-30 21:02 1.3M
20260430T18Z_MSC_RDPS_Precip-Accum_Sfc_RLatLon0.09_PT075H.grib2 2026-04-30 21:02 2.2M
20260430T18Z_MSC_RDPS_PrecipRate_Sfc_RLatLon0.09_PT075H.grib2 2026-04-30 21:02 171K
20260430T18Z_MSC_RDPS_PrecipType-Instant_Sfc_RLatLon0.09_PT075H.grib2 2026-04-30 21:02 606K
20260430T18Z_MSC_RDPS_Pressure-Trend3h_Sfc_RLatLon0.09_PT075H.grib2 2026-04-30 21:02 1.1M
20260430T18Z_MSC_RDPS_Pressure_MSL_RLatLon0.09_PT075H.grib2 2026-04-30 21:02 330K
20260430T18Z_MSC_RDPS_Pressure_PVU-1.5_RLatLon0.09_PT075H.grib2 2026-04-30 21:02 2.3M
20260430T18Z_MSC_RDPS_Pressure_PVU-1_RLatLon0.09_PT075H.grib2 2026-04-30 21:02 2.4M
20260430T18Z_MSC_RDPS_Pressure_PVU-2_RLatLon0.09_PT075H.grib2 2026-04-30 21:02 2.4M
20260430T18Z_MSC_RDPS_Pressure_Sfc_RLatLon0.09_PT075H.grib2 2026-04-30 21:02 499K
20260430T18Z_MSC_RDPS_RadiativeTemp_Sfc_RLatLon0.09_PT075H.grib2 2026-04-30 21:02 325K
20260430T18Z_MSC_RDPS_Rain-Accum1h_Sfc_RLatLon0.09_PT075H.grib2 2026-04-30 21:02 620K
20260430T18Z_MSC_RDPS_Rain-Accum3h_Sfc_RLatLon0.09_PT075H.grib2 2026-04-30 21:02 706K
20260430T18Z_MSC_RDPS_Rain-Accum_Sfc_RLatLon0.09_PT075H.grib2 2026-04-30 21:02 1.8M
20260430T18Z_MSC_RDPS_RelativeHumidity_AGL-2m_RLatLon0.09_PT075H.grib2 2026-04-30 21:02 1.0M
20260430T18Z_MSC_RDPS_RelativeHumidity_IsbL-0010_RLatLon0.09_PT075H.grib2 2026-04-30 21:02 607K
20260430T18Z_MSC_RDPS_RelativeHumidity_IsbL-0020_RLatLon0.09_PT075H.grib2 2026-04-30 21:02 649K
20260430T18Z_MSC_RDPS_RelativeHumidity_IsbL-0030_RLatLon0.09_PT075H.grib2 2026-04-30 21:02 604K
20260430T18Z_MSC_RDPS_RelativeHumidity_IsbL-0050_RLatLon0.09_PT075H.grib2 2026-04-30 21:02 361K
20260430T18Z_MSC_RDPS_RelativeHumidity_IsbL-0100_RLatLon0.09_PT075H.grib2 2026-04-30 21:02 279K
20260430T18Z_MSC_RDPS_RelativeHumidity_IsbL-0150_RLatLon0.09_PT075H.grib2 2026-04-30 21:02 413K
20260430T18Z_MSC_RDPS_RelativeHumidity_IsbL-0175_RLatLon0.09_PT075H.grib2 2026-04-30 21:02 474K
20260430T18Z_MSC_RDPS_RelativeHumidity_IsbL-0200_RLatLon0.09_PT075H.grib2 2026-04-30 21:02 555K
20260430T18Z_MSC_RDPS_RelativeHumidity_IsbL-0225_RLatLon0.09_PT075H.grib2 2026-04-30 21:02 619K
20260430T18Z_MSC_RDPS_RelativeHumidity_IsbL-0250_RLatLon0.09_PT075H.grib2 2026-04-30 21:02 687K
20260430T18Z_MSC_RDPS_RelativeHumidity_IsbL-0275_RLatLon0.09_PT075H.grib2 2026-04-30 21:02 712K
20260430T18Z_MSC_RDPS_RelativeHumidity_IsbL-0300_RLatLon0.09_PT075H.grib2 2026-04-30 21:02 752K
20260430T18Z_MSC_RDPS_RelativeHumidity_IsbL-0350_RLatLon0.09_PT075H.grib2 2026-04-30 21:02 778K
20260430T18Z_MSC_RDPS_RelativeHumidity_IsbL-0400_RLatLon0.09_PT075H.grib2 2026-04-30 21:02 792K
20260430T18Z_MSC_RDPS_RelativeHumidity_IsbL-0450_RLatLon0.09_PT075H.grib2 2026-04-30 21:02 795K
20260430T18Z_MSC_RDPS_RelativeHumidity_IsbL-0500_RLatLon0.09_PT075H.grib2 2026-04-30 21:02 802K
20260430T18Z_MSC_RDPS_RelativeHumidity_IsbL-0550_RLatLon0.09_PT075H.grib2 2026-04-30 21:02 821K
20260430T18Z_MSC_RDPS_RelativeHumidity_IsbL-0600_RLatLon0.09_PT075H.grib2 2026-04-30 21:02 837K
20260430T18Z_MSC_RDPS_RelativeHumidity_IsbL-0650_RLatLon0.09_PT075H.grib2 2026-04-30 21:02 849K
20260430T18Z_MSC_RDPS_RelativeHumidity_IsbL-0700_RLatLon0.09_PT075H.grib2 2026-04-30 21:02 874K
20260430T18Z_MSC_RDPS_RelativeHumidity_IsbL-0750_RLatLon0.09_PT075H.grib2 2026-04-30 21:02 925K
20260430T18Z_MSC_RDPS_RelativeHumidity_IsbL-0800_RLatLon0.09_PT075H.grib2 2026-04-30 21:02 1.0M
20260430T18Z_MSC_RDPS_RelativeHumidity_IsbL-0850_RLatLon0.09_PT075H.grib2 2026-04-30 21:02 1.0M
20260430T18Z_MSC_RDPS_RelativeHumidity_IsbL-0875_RLatLon0.09_PT075H.grib2 2026-04-30 21:02 1.1M
20260430T18Z_MSC_RDPS_RelativeHumidity_IsbL-0900_RLatLon0.09_PT075H.grib2 2026-04-30 21:02 1.1M
20260430T18Z_MSC_RDPS_RelativeHumidity_IsbL-0925_RLatLon0.09_PT075H.grib2 2026-04-30 21:02 1.1M
20260430T18Z_MSC_RDPS_RelativeHumidity_IsbL-0950_RLatLon0.09_PT075H.grib2 2026-04-30 21:02 1.1M
20260430T18Z_MSC_RDPS_RelativeHumidity_IsbL-0970_RLatLon0.09_PT075H.grib2 2026-04-30 21:02 1.0M
20260430T18Z_MSC_RDPS_RelativeHumidity_IsbL-0985_RLatLon0.09_PT075H.grib2 2026-04-30 21:02 1.0M
20260430T18Z_MSC_RDPS_RelativeHumidity_IsbL-1000_RLatLon0.09_PT075H.grib2 2026-04-30 21:02 1.0M
20260430T18Z_MSC_RDPS_RelativeHumidity_IsbL-1015_RLatLon0.09_PT075H.grib2 2026-04-30 21:02 1.0M
20260430T18Z_MSC_RDPS_Runoff-Accum_Sfc_RLatLon0.09_PT075H.grib2 2026-04-30 21:02 69K
20260430T18Z_MSC_RDPS_SWEATIndex_Sfc_RLatLon0.09_PT075H.grib2 2026-04-30 21:02 2.4M
20260430T18Z_MSC_RDPS_SeeingIndex_EAtm_RLatLon0.09_PT075H.grib2 2026-04-30 21:02 1.0M
20260430T18Z_MSC_RDPS_SensibleHeatNetFlux_Sfc_RLatLon0.09_PT075H.grib2 2026-04-30 21:02 357K
20260430T18Z_MSC_RDPS_ShowalterIndex_IsbL-0500_RLatLon0.09_PT075H.grib2 2026-04-30 21:02 2.6M
20260430T18Z_MSC_RDPS_SkyTransparencyIndex_EAtm_RLatLon0.09_PT075H.grib2 2026-04-30 21:02 737K
20260430T18Z_MSC_RDPS_Snow-Accum1h_Sfc_RLatLon0.09_PT075H.grib2 2026-04-30 21:02 441K
20260430T18Z_MSC_RDPS_Snow-Accum3h_Sfc_RLatLon0.09_PT075H.grib2 2026-04-30 21:02 447K
20260430T18Z_MSC_RDPS_Snow-Accum_Sfc_RLatLon0.09_PT075H.grib2 2026-04-30 21:02 770K
20260430T18Z_MSC_RDPS_SnowDensity_Sfc_RLatLon0.09_PT075H.grib2 2026-04-30 21:02 174K
20260430T18Z_MSC_RDPS_SnowDepth_Sfc_RLatLon0.09_PT075H.grib2 2026-04-30 21:02 656K
20260430T18Z_MSC_RDPS_SoilTemp_DBS-0to10cm_RLatLon0.09_PT075H.grib2 2026-04-30 21:02 248K
20260430T18Z_MSC_RDPS_SoilTemp_Sfc_RLatLon0.09_PT075H.grib2 2026-04-30 21:02 296K
20260430T18Z_MSC_RDPS_SoilVolumetricIceContent_Sfc_RLatLon0.09_PT075H.grib2 2026-04-30 21:02 157K
20260430T18Z_MSC_RDPS_SoilVolumetricWaterContent_DBS-0to10cm_RLatLon0.09_PT075H.grib2 2026-04-30 21:02 274K
20260430T18Z_MSC_RDPS_SoilVolumetricWaterContent_DBS-0to1cm_RLatLon0.09_PT075H.grib2 2026-04-30 21:02 342K
20260430T18Z_MSC_RDPS_SpecificHumidity_AGL-120m_RLatLon0.09_PT075H.grib2 2026-04-30 21:02 499K
20260430T18Z_MSC_RDPS_SpecificHumidity_AGL-2m_RLatLon0.09_PT075H.grib2 2026-04-30 21:02 669K
20260430T18Z_MSC_RDPS_SpecificHumidity_AGL-40m_RLatLon0.09_PT075H.grib2 2026-04-30 21:02 505K
20260430T18Z_MSC_RDPS_SpecificHumidity_AGL-80m_RLatLon0.09_PT075H.grib2 2026-04-30 21:02 501K
20260430T18Z_MSC_RDPS_SpecificHumidity_IsbL-0001_RLatLon0.09_PT075H.grib2 2026-04-30 21:02 374K
20260430T18Z_MSC_RDPS_SpecificHumidity_IsbL-0005_RLatLon0.09_PT075H.grib2 2026-04-30 21:02 359K
20260430T18Z_MSC_RDPS_SpecificHumidity_IsbL-0010_RLatLon0.09_PT075H.grib2 2026-04-30 21:02 391K
20260430T18Z_MSC_RDPS_SpecificHumidity_IsbL-0020_RLatLon0.09_PT075H.grib2 2026-04-30 21:02 371K
20260430T18Z_MSC_RDPS_SpecificHumidity_IsbL-0030_RLatLon0.09_PT075H.grib2 2026-04-30 21:02 474K
20260430T18Z_MSC_RDPS_SpecificHumidity_IsbL-0050_RLatLon0.09_PT075H.grib2 2026-04-30 21:02 471K
20260430T18Z_MSC_RDPS_SpecificHumidity_IsbL-0100_RLatLon0.09_PT075H.grib2 2026-04-30 21:02 444K
20260430T18Z_MSC_RDPS_SpecificHumidity_IsbL-0150_RLatLon0.09_PT075H.grib2 2026-04-30 21:02 452K
20260430T18Z_MSC_RDPS_SpecificHumidity_IsbL-0175_RLatLon0.09_PT075H.grib2 2026-04-30 21:02 437K
20260430T18Z_MSC_RDPS_SpecificHumidity_IsbL-0200_RLatLon0.09_PT075H.grib2 2026-04-30 21:02 457K
20260430T18Z_MSC_RDPS_SpecificHumidity_IsbL-0225_RLatLon0.09_PT075H.grib2 2026-04-30 21:02 457K
20260430T18Z_MSC_RDPS_SpecificHumidity_IsbL-0250_RLatLon0.09_PT075H.grib2 2026-04-30 21:02 518K
20260430T18Z_MSC_RDPS_SpecificHumidity_IsbL-0275_RLatLon0.09_PT075H.grib2 2026-04-30 21:02 478K
20260430T18Z_MSC_RDPS_SpecificHumidity_IsbL-0300_RLatLon0.09_PT075H.grib2 2026-04-30 21:02 451K
20260430T18Z_MSC_RDPS_SpecificHumidity_IsbL-0350_RLatLon0.09_PT075H.grib2 2026-04-30 21:02 449K
20260430T18Z_MSC_RDPS_SpecificHumidity_IsbL-0400_RLatLon0.09_PT075H.grib2 2026-04-30 21:02 526K
20260430T18Z_MSC_RDPS_SpecificHumidity_IsbL-0450_RLatLon0.09_PT075H.grib2 2026-04-30 21:02 574K
20260430T18Z_MSC_RDPS_SpecificHumidity_IsbL-0500_RLatLon0.09_PT075H.grib2 2026-04-30 21:02 510K
20260430T18Z_MSC_RDPS_SpecificHumidity_IsbL-0550_RLatLon0.09_PT075H.grib2 2026-04-30 21:02 584K
20260430T18Z_MSC_RDPS_SpecificHumidity_IsbL-0600_RLatLon0.09_PT075H.grib2 2026-04-30 21:02 633K
20260430T18Z_MSC_RDPS_SpecificHumidity_IsbL-0650_RLatLon0.09_PT075H.grib2 2026-04-30 21:02 551K
20260430T18Z_MSC_RDPS_SpecificHumidity_IsbL-0700_RLatLon0.09_PT075H.grib2 2026-04-30 21:02 595K
20260430T18Z_MSC_RDPS_SpecificHumidity_IsbL-0750_RLatLon0.09_PT075H.grib2 2026-04-30 21:02 652K
20260430T18Z_MSC_RDPS_SpecificHumidity_IsbL-0800_RLatLon0.09_PT075H.grib2 2026-04-30 21:02 738K
20260430T18Z_MSC_RDPS_SpecificHumidity_IsbL-0850_RLatLon0.09_PT075H.grib2 2026-04-30 21:02 815K
20260430T18Z_MSC_RDPS_SpecificHumidity_IsbL-0875_RLatLon0.09_PT075H.grib2 2026-04-30 21:02 703K
20260430T18Z_MSC_RDPS_SpecificHumidity_IsbL-0900_RLatLon0.09_PT075H.grib2 2026-04-30 21:02 714K
20260430T18Z_MSC_RDPS_SpecificHumidity_IsbL-0925_RLatLon0.09_PT075H.grib2 2026-04-30 21:02 714K
20260430T18Z_MSC_RDPS_SpecificHumidity_IsbL-0950_RLatLon0.09_PT075H.grib2 2026-04-30 21:02 715K
20260430T18Z_MSC_RDPS_SpecificHumidity_IsbL-0970_RLatLon0.09_PT075H.grib2 2026-04-30 21:02 707K
20260430T18Z_MSC_RDPS_SpecificHumidity_IsbL-0985_RLatLon0.09_PT075H.grib2 2026-04-30 21:02 701K
20260430T18Z_MSC_RDPS_SpecificHumidity_IsbL-1000_RLatLon0.09_PT075H.grib2 2026-04-30 21:02 695K
20260430T18Z_MSC_RDPS_SpecificHumidity_IsbL-1015_RLatLon0.09_PT075H.grib2 2026-04-30 21:02 684K
20260430T18Z_MSC_RDPS_SpecificHumidity_Sfc_RLatLon0.09_PT075H.grib2 2026-04-30 21:02 345K
20260430T18Z_MSC_RDPS_StormRelativeHelicity_EtaL-10000_RLatLon0.09_PT075H.grib2 2026-04-30 21:02 1.0M
20260430T18Z_MSC_RDPS_StormSeverityIndex_EtaL-10000_RLatLon0.09_PT075H.grib2 2026-04-30 21:02 1.2M
20260430T18Z_MSC_RDPS_Thickness_IsbL-0850to0700_RLatLon0.09_PT075H.grib2 2026-04-30 21:02 177K
20260430T18Z_MSC_RDPS_Thickness_IsbL-1000to0500_RLatLon0.09_PT075H.grib2 2026-04-30 21:02 198K
20260430T18Z_MSC_RDPS_Thickness_IsbL-1000to0850_RLatLon0.09_PT075H.grib2 2026-04-30 21:02 188K
20260430T18Z_MSC_RDPS_TotalCloudCover_Sfc_RLatLon0.09_PT075H.grib2 2026-04-30 21:02 654K
20260430T18Z_MSC_RDPS_TotalTotalsIndex_Sfc_RLatLon0.09_PT075H.grib2 2026-04-30 21:02 2.3M
20260430T18Z_MSC_RDPS_UVIndex-ClearSky_Sfc_RLatLon0.09_PT075H.grib2 2026-04-30 21:02 202K
20260430T18Z_MSC_RDPS_UVIndex_Sfc_RLatLon0.09_PT075H.grib2 2026-04-30 21:02 469K
20260430T18Z_MSC_RDPS_UpwardLongwaveRadiationFlux_NTAtm_RLatLon0.09_PT075H.grib2 2026-04-30 21:02 387K
20260430T18Z_MSC_RDPS_UpwardShortwaveRadiationFlux_NTAtm_RLatLon0.09_PT075H.grib2 2026-04-30 21:02 503K
20260430T18Z_MSC_RDPS_VerticalVelocity_IsbL-0250_RLatLon0.09_PT075H.grib2 2026-04-30 21:02 556K
20260430T18Z_MSC_RDPS_VerticalVelocity_IsbL-0500_RLatLon0.09_PT075H.grib2 2026-04-30 21:02 546K
20260430T18Z_MSC_RDPS_VerticalVelocity_IsbL-0700_RLatLon0.09_PT075H.grib2 2026-04-30 21:02 600K
20260430T18Z_MSC_RDPS_VerticalVelocity_IsbL-0850_RLatLon0.09_PT075H.grib2 2026-04-30 21:02 657K
20260430T18Z_MSC_RDPS_VerticalWindShear_EtaL-6500_RLatLon0.09_PT075H.grib2 2026-04-30 21:02 1.2M
20260430T18Z_MSC_RDPS_WindChill_Sfc_RLatLon0.09_PT075H.grib2 2026-04-30 21:02 1.1M
20260430T18Z_MSC_RDPS_WindDir_AGL-10m_RLatLon0.09_PT075H.grib2 2026-04-30 21:02 956K
20260430T18Z_MSC_RDPS_WindDir_AGL-120m_RLatLon0.09_PT075H.grib2 2026-04-30 21:02 604K
20260430T18Z_MSC_RDPS_WindDir_AGL-40m_RLatLon0.09_PT075H.grib2 2026-04-30 21:02 626K
20260430T18Z_MSC_RDPS_WindDir_AGL-80m_RLatLon0.09_PT075H.grib2 2026-04-30 21:02 613K
20260430T18Z_MSC_RDPS_WindDir_IsbL-0001_RLatLon0.09_PT075H.grib2 2026-04-30 21:02 278K
20260430T18Z_MSC_RDPS_WindDir_IsbL-0005_RLatLon0.09_PT075H.grib2 2026-04-30 21:02 363K
20260430T18Z_MSC_RDPS_WindDir_IsbL-0010_RLatLon0.09_PT075H.grib2 2026-04-30 21:02 392K
20260430T18Z_MSC_RDPS_WindDir_IsbL-0020_RLatLon0.09_PT075H.grib2 2026-04-30 21:02 425K
20260430T18Z_MSC_RDPS_WindDir_IsbL-0030_RLatLon0.09_PT075H.grib2 2026-04-30 21:02 419K
20260430T18Z_MSC_RDPS_WindDir_IsbL-0050_RLatLon0.09_PT075H.grib2 2026-04-30 21:02 421K
20260430T18Z_MSC_RDPS_WindDir_IsbL-0100_RLatLon0.09_PT075H.grib2 2026-04-30 21:02 409K
20260430T18Z_MSC_RDPS_WindDir_IsbL-0150_RLatLon0.09_PT075H.grib2 2026-04-30 21:02 410K
20260430T18Z_MSC_RDPS_WindDir_IsbL-0175_RLatLon0.09_PT075H.grib2 2026-04-30 21:02 434K
20260430T18Z_MSC_RDPS_WindDir_IsbL-0200_RLatLon0.09_PT075H.grib2 2026-04-30 21:02 453K
20260430T18Z_MSC_RDPS_WindDir_IsbL-0225_RLatLon0.09_PT075H.grib2 2026-04-30 21:02 457K
20260430T18Z_MSC_RDPS_WindDir_IsbL-0250_RLatLon0.09_PT075H.grib2 2026-04-30 21:02 456K
20260430T18Z_MSC_RDPS_WindDir_IsbL-0275_RLatLon0.09_PT075H.grib2 2026-04-30 21:02 484K
20260430T18Z_MSC_RDPS_WindDir_IsbL-0300_RLatLon0.09_PT075H.grib2 2026-04-30 21:02 480K
20260430T18Z_MSC_RDPS_WindDir_IsbL-0350_RLatLon0.09_PT075H.grib2 2026-04-30 21:02 500K
20260430T18Z_MSC_RDPS_WindDir_IsbL-0400_RLatLon0.09_PT075H.grib2 2026-04-30 21:02 520K
20260430T18Z_MSC_RDPS_WindDir_IsbL-0450_RLatLon0.09_PT075H.grib2 2026-04-30 21:02 530K
20260430T18Z_MSC_RDPS_WindDir_IsbL-0500_RLatLon0.09_PT075H.grib2 2026-04-30 21:02 535K
20260430T18Z_MSC_RDPS_WindDir_IsbL-0550_RLatLon0.09_PT075H.grib2 2026-04-30 21:02 544K
20260430T18Z_MSC_RDPS_WindDir_IsbL-0600_RLatLon0.09_PT075H.grib2 2026-04-30 21:02 564K
20260430T18Z_MSC_RDPS_WindDir_IsbL-0650_RLatLon0.09_PT075H.grib2 2026-04-30 21:02 601K
20260430T18Z_MSC_RDPS_WindDir_IsbL-0700_RLatLon0.09_PT075H.grib2 2026-04-30 21:02 644K
20260430T18Z_MSC_RDPS_WindDir_IsbL-0750_RLatLon0.09_PT075H.grib2 2026-04-30 21:02 689K
20260430T18Z_MSC_RDPS_WindDir_IsbL-0800_RLatLon0.09_PT075H.grib2 2026-04-30 21:02 756K
20260430T18Z_MSC_RDPS_WindDir_IsbL-0850_RLatLon0.09_PT075H.grib2 2026-04-30 21:02 849K
20260430T18Z_MSC_RDPS_WindDir_IsbL-0875_RLatLon0.09_PT075H.grib2 2026-04-30 21:02 883K
20260430T18Z_MSC_RDPS_WindDir_IsbL-0900_RLatLon0.09_PT075H.grib2 2026-04-30 21:02 898K
20260430T18Z_MSC_RDPS_WindDir_IsbL-0925_RLatLon0.09_PT075H.grib2 2026-04-30 21:02 906K
20260430T18Z_MSC_RDPS_WindDir_IsbL-0950_RLatLon0.09_PT075H.grib2 2026-04-30 21:02 904K
20260430T18Z_MSC_RDPS_WindDir_IsbL-0970_RLatLon0.09_PT075H.grib2 2026-04-30 21:02 912K
20260430T18Z_MSC_RDPS_WindDir_IsbL-0985_RLatLon0.09_PT075H.grib2 2026-04-30 21:02 921K
20260430T18Z_MSC_RDPS_WindDir_IsbL-1000_RLatLon0.09_PT075H.grib2 2026-04-30 21:02 934K
20260430T18Z_MSC_RDPS_WindDir_IsbL-1015_RLatLon0.09_PT075H.grib2 2026-04-30 21:02 948K
20260430T18Z_MSC_RDPS_WindGust-Max_AGL-10m_RLatLon0.09_PT075H.grib2 2026-04-30 21:02 1.0M
20260430T18Z_MSC_RDPS_WindGust-Min_AGL-10m_RLatLon0.09_PT075H.grib2 2026-04-30 21:02 1.0M
20260430T18Z_MSC_RDPS_WindGust_AGL-10m_RLatLon0.09_PT075H.grib2 2026-04-30 21:02 1.0M
20260430T18Z_MSC_RDPS_WindSpeed_AGL-10m_RLatLon0.09_PT075H.grib2 2026-04-30 21:02 838K
20260430T18Z_MSC_RDPS_WindSpeed_AGL-120m_RLatLon0.09_PT075H.grib2 2026-04-30 21:02 532K
20260430T18Z_MSC_RDPS_WindSpeed_AGL-40m_RLatLon0.09_PT075H.grib2 2026-04-30 21:02 537K
20260430T18Z_MSC_RDPS_WindSpeed_AGL-80m_RLatLon0.09_PT075H.grib2 2026-04-30 21:02 533K
20260430T18Z_MSC_RDPS_WindSpeed_IsbL-0001_RLatLon0.09_PT075H.grib2 2026-04-30 21:02 252K
20260430T18Z_MSC_RDPS_WindSpeed_IsbL-0005_RLatLon0.09_PT075H.grib2 2026-04-30 21:02 382K
20260430T18Z_MSC_RDPS_WindSpeed_IsbL-0010_RLatLon0.09_PT075H.grib2 2026-04-30 21:02 402K
20260430T18Z_MSC_RDPS_WindSpeed_IsbL-0020_RLatLon0.09_PT075H.grib2 2026-04-30 21:02 325K
20260430T18Z_MSC_RDPS_WindSpeed_IsbL-0030_RLatLon0.09_PT075H.grib2 2026-04-30 21:02 322K
20260430T18Z_MSC_RDPS_WindSpeed_IsbL-0050_RLatLon0.09_PT075H.grib2 2026-04-30 21:02 352K
20260430T18Z_MSC_RDPS_WindSpeed_IsbL-0100_RLatLon0.09_PT075H.grib2 2026-04-30 21:02 478K
20260430T18Z_MSC_RDPS_WindSpeed_IsbL-0150_RLatLon0.09_PT075H.grib2 2026-04-30 21:02 385K
20260430T18Z_MSC_RDPS_WindSpeed_IsbL-0175_RLatLon0.09_PT075H.grib2 2026-04-30 21:02 428K
20260430T18Z_MSC_RDPS_WindSpeed_IsbL-0200_RLatLon0.09_PT075H.grib2 2026-04-30 21:02 447K
20260430T18Z_MSC_RDPS_WindSpeed_IsbL-0225_RLatLon0.09_PT075H.grib2 2026-04-30 21:02 453K
20260430T18Z_MSC_RDPS_WindSpeed_IsbL-0250_RLatLon0.09_PT075H.grib2 2026-04-30 21:02 455K
20260430T18Z_MSC_RDPS_WindSpeed_IsbL-0275_RLatLon0.09_PT075H.grib2 2026-04-30 21:02 472K
20260430T18Z_MSC_RDPS_WindSpeed_IsbL-0300_RLatLon0.09_PT075H.grib2 2026-04-30 21:02 468K
20260430T18Z_MSC_RDPS_WindSpeed_IsbL-0350_RLatLon0.09_PT075H.grib2 2026-04-30 21:02 478K
20260430T18Z_MSC_RDPS_WindSpeed_IsbL-0400_RLatLon0.09_PT075H.grib2 2026-04-30 21:02 463K
20260430T18Z_MSC_RDPS_WindSpeed_IsbL-0450_RLatLon0.09_PT075H.grib2 2026-04-30 21:02 464K
20260430T18Z_MSC_RDPS_WindSpeed_IsbL-0500_RLatLon0.09_PT075H.grib2 2026-04-30 21:02 465K
20260430T18Z_MSC_RDPS_WindSpeed_IsbL-0550_RLatLon0.09_PT075H.grib2 2026-04-30 21:02 583K
20260430T18Z_MSC_RDPS_WindSpeed_IsbL-0600_RLatLon0.09_PT075H.grib2 2026-04-30 21:02 590K
20260430T18Z_MSC_RDPS_WindSpeed_IsbL-0650_RLatLon0.09_PT075H.grib2 2026-04-30 21:02 609K
20260430T18Z_MSC_RDPS_WindSpeed_IsbL-0700_RLatLon0.09_PT075H.grib2 2026-04-30 21:02 677K
20260430T18Z_MSC_RDPS_WindSpeed_IsbL-0750_RLatLon0.09_PT075H.grib2 2026-04-30 21:02 710K
20260430T18Z_MSC_RDPS_WindSpeed_IsbL-0800_RLatLon0.09_PT075H.grib2 2026-04-30 21:02 755K
20260430T18Z_MSC_RDPS_WindSpeed_IsbL-0850_RLatLon0.09_PT075H.grib2 2026-04-30 21:02 816K
20260430T18Z_MSC_RDPS_WindSpeed_IsbL-0875_RLatLon0.09_PT075H.grib2 2026-04-30 21:02 840K
20260430T18Z_MSC_RDPS_WindSpeed_IsbL-0900_RLatLon0.09_PT075H.grib2 2026-04-30 21:02 852K
20260430T18Z_MSC_RDPS_WindSpeed_IsbL-0925_RLatLon0.09_PT075H.grib2 2026-04-30 21:02 863K
20260430T18Z_MSC_RDPS_WindSpeed_IsbL-0950_RLatLon0.09_PT075H.grib2 2026-04-30 21:02 862K
20260430T18Z_MSC_RDPS_WindSpeed_IsbL-0970_RLatLon0.09_PT075H.grib2 2026-04-30 21:02 862K
20260430T18Z_MSC_RDPS_WindSpeed_IsbL-0985_RLatLon0.09_PT075H.grib2 2026-04-30 21:02 858K
20260430T18Z_MSC_RDPS_WindSpeed_IsbL-1000_RLatLon0.09_PT075H.grib2 2026-04-30 21:02 848K
20260430T18Z_MSC_RDPS_WindSpeed_IsbL-1015_RLatLon0.09_PT075H.grib2 2026-04-30 21:02 838K
20260430T18Z_MSC_RDPS_WindU_AGL-10m_RLatLon0.09_PT075H.grib2 2026-04-30 21:02 433K
20260430T18Z_MSC_RDPS_WindU_AGL-120m_RLatLon0.09_PT075H.grib2 2026-04-30 21:02 414K
20260430T18Z_MSC_RDPS_WindU_AGL-40m_RLatLon0.09_PT075H.grib2 2026-04-30 21:02 534K
20260430T18Z_MSC_RDPS_WindU_AGL-80m_RLatLon0.09_PT075H.grib2 2026-04-30 21:02 416K
20260430T18Z_MSC_RDPS_WindU_IsbL-0001_RLatLon0.09_PT075H.grib2 2026-04-30 21:02 294K
20260430T18Z_MSC_RDPS_WindU_IsbL-0005_RLatLon0.09_PT075H.grib2 2026-04-30 21:02 283K
20260430T18Z_MSC_RDPS_WindU_IsbL-0010_RLatLon0.09_PT075H.grib2 2026-04-30 21:02 299K
20260430T18Z_MSC_RDPS_WindU_IsbL-0020_RLatLon0.09_PT075H.grib2 2026-04-30 21:02 317K
20260430T18Z_MSC_RDPS_WindU_IsbL-0030_RLatLon0.09_PT075H.grib2 2026-04-30 21:02 355K
20260430T18Z_MSC_RDPS_WindU_IsbL-0050_RLatLon0.09_PT075H.grib2 2026-04-30 21:02 381K
20260430T18Z_MSC_RDPS_WindU_IsbL-0100_RLatLon0.09_PT075H.grib2 2026-04-30 21:02 434K
20260430T18Z_MSC_RDPS_WindU_IsbL-0150_RLatLon0.09_PT075H.grib2 2026-04-30 21:02 401K
20260430T18Z_MSC_RDPS_WindU_IsbL-0175_RLatLon0.09_PT075H.grib2 2026-04-30 21:02 421K
20260430T18Z_MSC_RDPS_WindU_IsbL-0200_RLatLon0.09_PT075H.grib2 2026-04-30 21:02 341K
20260430T18Z_MSC_RDPS_WindU_IsbL-0225_RLatLon0.09_PT075H.grib2 2026-04-30 21:02 345K
20260430T18Z_MSC_RDPS_WindU_IsbL-0250_RLatLon0.09_PT075H.grib2 2026-04-30 21:02 345K
20260430T18Z_MSC_RDPS_WindU_IsbL-0275_RLatLon0.09_PT075H.grib2 2026-04-30 21:02 359K
20260430T18Z_MSC_RDPS_WindU_IsbL-0300_RLatLon0.09_PT075H.grib2 2026-04-30 21:02 455K
20260430T18Z_MSC_RDPS_WindU_IsbL-0350_RLatLon0.09_PT075H.grib2 2026-04-30 21:02 465K
20260430T18Z_MSC_RDPS_WindU_IsbL-0400_RLatLon0.09_PT075H.grib2 2026-04-30 21:02 468K
20260430T18Z_MSC_RDPS_WindU_IsbL-0450_RLatLon0.09_PT075H.grib2 2026-04-30 21:02 469K
20260430T18Z_MSC_RDPS_WindU_IsbL-0500_RLatLon0.09_PT075H.grib2 2026-04-30 21:02 471K
20260430T18Z_MSC_RDPS_WindU_IsbL-0550_RLatLon0.09_PT075H.grib2 2026-04-30 21:02 454K
20260430T18Z_MSC_RDPS_WindU_IsbL-0600_RLatLon0.09_PT075H.grib2 2026-04-30 21:02 461K
20260430T18Z_MSC_RDPS_WindU_IsbL-0650_RLatLon0.09_PT075H.grib2 2026-04-30 21:02 479K
20260430T18Z_MSC_RDPS_WindU_IsbL-0700_RLatLon0.09_PT075H.grib2 2026-04-30 21:02 503K
20260430T18Z_MSC_RDPS_WindU_IsbL-0750_RLatLon0.09_PT075H.grib2 2026-04-30 21:02 530K
20260430T18Z_MSC_RDPS_WindU_IsbL-0800_RLatLon0.09_PT075H.grib2 2026-04-30 21:02 570K
20260430T18Z_MSC_RDPS_WindU_IsbL-0850_RLatLon0.09_PT075H.grib2 2026-04-30 21:02 632K
20260430T18Z_MSC_RDPS_WindU_IsbL-0875_RLatLon0.09_PT075H.grib2 2026-04-30 21:02 651K
20260430T18Z_MSC_RDPS_WindU_IsbL-0900_RLatLon0.09_PT075H.grib2 2026-04-30 21:02 652K
20260430T18Z_MSC_RDPS_WindU_IsbL-0925_RLatLon0.09_PT075H.grib2 2026-04-30 21:02 660K
20260430T18Z_MSC_RDPS_WindU_IsbL-0950_RLatLon0.09_PT075H.grib2 2026-04-30 21:02 655K
20260430T18Z_MSC_RDPS_WindU_IsbL-0970_RLatLon0.09_PT075H.grib2 2026-04-30 21:02 654K
20260430T18Z_MSC_RDPS_WindU_IsbL-0985_RLatLon0.09_PT075H.grib2 2026-04-30 21:02 651K
20260430T18Z_MSC_RDPS_WindU_IsbL-1000_RLatLon0.09_PT075H.grib2 2026-04-30 21:02 786K
20260430T18Z_MSC_RDPS_WindU_IsbL-1015_RLatLon0.09_PT075H.grib2 2026-04-30 21:02 779K
20260430T18Z_MSC_RDPS_WindV_AGL-10m_RLatLon0.09_PT075H.grib2 2026-04-30 21:02 433K
20260430T18Z_MSC_RDPS_WindV_AGL-120m_RLatLon0.09_PT075H.grib2 2026-04-30 21:02 531K
20260430T18Z_MSC_RDPS_WindV_AGL-40m_RLatLon0.09_PT075H.grib2 2026-04-30 21:02 534K
20260430T18Z_MSC_RDPS_WindV_AGL-80m_RLatLon0.09_PT075H.grib2 2026-04-30 21:02 532K
20260430T18Z_MSC_RDPS_WindV_IsbL-0001_RLatLon0.09_PT075H.grib2 2026-04-30 21:02 247K
20260430T18Z_MSC_RDPS_WindV_IsbL-0005_RLatLon0.09_PT075H.grib2 2026-04-30 21:02 287K
20260430T18Z_MSC_RDPS_WindV_IsbL-0010_RLatLon0.09_PT075H.grib2 2026-04-30 21:02 391K
20260430T18Z_MSC_RDPS_WindV_IsbL-0020_RLatLon0.09_PT075H.grib2 2026-04-30 21:02 320K
20260430T18Z_MSC_RDPS_WindV_IsbL-0030_RLatLon0.09_PT075H.grib2 2026-04-30 21:02 318K
20260430T18Z_MSC_RDPS_WindV_IsbL-0050_RLatLon0.09_PT075H.grib2 2026-04-30 21:02 344K
20260430T18Z_MSC_RDPS_WindV_IsbL-0100_RLatLon0.09_PT075H.grib2 2026-04-30 21:02 334K
20260430T18Z_MSC_RDPS_WindV_IsbL-0150_RLatLon0.09_PT075H.grib2 2026-04-30 21:02 400K
20260430T18Z_MSC_RDPS_WindV_IsbL-0175_RLatLon0.09_PT075H.grib2 2026-04-30 21:02 327K
20260430T18Z_MSC_RDPS_WindV_IsbL-0200_RLatLon0.09_PT075H.grib2 2026-04-30 21:02 341K
20260430T18Z_MSC_RDPS_WindV_IsbL-0225_RLatLon0.09_PT075H.grib2 2026-04-30 21:02 370K
20260430T18Z_MSC_RDPS_WindV_IsbL-0250_RLatLon0.09_PT075H.grib2 2026-04-30 21:02 370K
20260430T18Z_MSC_RDPS_WindV_IsbL-0275_RLatLon0.09_PT075H.grib2 2026-04-30 21:02 382K
20260430T18Z_MSC_RDPS_WindV_IsbL-0300_RLatLon0.09_PT075H.grib2 2026-04-30 21:02 379K
20260430T18Z_MSC_RDPS_WindV_IsbL-0350_RLatLon0.09_PT075H.grib2 2026-04-30 21:02 360K
20260430T18Z_MSC_RDPS_WindV_IsbL-0400_RLatLon0.09_PT075H.grib2 2026-04-30 21:02 362K
20260430T18Z_MSC_RDPS_WindV_IsbL-0450_RLatLon0.09_PT075H.grib2 2026-04-30 21:02 364K
20260430T18Z_MSC_RDPS_WindV_IsbL-0500_RLatLon0.09_PT075H.grib2 2026-04-30 21:02 468K
20260430T18Z_MSC_RDPS_WindV_IsbL-0550_RLatLon0.09_PT075H.grib2 2026-04-30 21:02 470K
20260430T18Z_MSC_RDPS_WindV_IsbL-0600_RLatLon0.09_PT075H.grib2 2026-04-30 21:02 476K
20260430T18Z_MSC_RDPS_WindV_IsbL-0650_RLatLon0.09_PT075H.grib2 2026-04-30 21:02 493K
20260430T18Z_MSC_RDPS_WindV_IsbL-0700_RLatLon0.09_PT075H.grib2 2026-04-30 21:02 515K
20260430T18Z_MSC_RDPS_WindV_IsbL-0750_RLatLon0.09_PT075H.grib2 2026-04-30 21:02 541K
20260430T18Z_MSC_RDPS_WindV_IsbL-0800_RLatLon0.09_PT075H.grib2 2026-04-30 21:02 578K
20260430T18Z_MSC_RDPS_WindV_IsbL-0850_RLatLon0.09_PT075H.grib2 2026-04-30 21:02 628K
20260430T18Z_MSC_RDPS_WindV_IsbL-0875_RLatLon0.09_PT075H.grib2 2026-04-30 21:02 640K
20260430T18Z_MSC_RDPS_WindV_IsbL-0900_RLatLon0.09_PT075H.grib2 2026-04-30 21:02 652K
20260430T18Z_MSC_RDPS_WindV_IsbL-0925_RLatLon0.09_PT075H.grib2 2026-04-30 21:02 660K
20260430T18Z_MSC_RDPS_WindV_IsbL-0950_RLatLon0.09_PT075H.grib2 2026-04-30 21:02 657K
20260430T18Z_MSC_RDPS_WindV_IsbL-0970_RLatLon0.09_PT075H.grib2 2026-04-30 21:02 655K
20260430T18Z_MSC_RDPS_WindV_IsbL-0985_RLatLon0.09_PT075H.grib2 2026-04-30 21:02 792K
20260430T18Z_MSC_RDPS_WindV_IsbL-1000_RLatLon0.09_PT075H.grib2 2026-04-30 21:02 785K
20260430T18Z_MSC_RDPS_WindV_IsbL-1015_RLatLon0.09_PT075H.grib2 2026-04-30 21:02 778K